Total_Precipitation_Accumulation
0.19 0.18 0.19 0.20 0.18 0.16 0.14 0.11 0.07 0.07 0.09 0.13 0.15 0.12 0.12 0.11 0.12 0.14 0.12 0.12 0.11 0.11 0.13 0.19 0.29 0.47 0.64 0.82 1.05 1.15 0.95 0.81 0.67 0.56 0.56 0.66 0.73 0.78 0.80 0.83 0.90 0.85 0.72
0.19 0.18 0.18 0.18 0.18 0.17 0.15 0.12 0.09 0.05 0.03 0.02 0.03 0.05 0.10 0.12 0.15 0.16 0.14 0.14 0.13 0.11 0.12 0.15 0.21 0.34 0.52 0.75 1.00 1.30 1.23 1.09 0.92 0.74 0.58 0.58 0.65 0.70 0.74 0.80 0.86 0.94 0.90
0.21 0.20 0.20 0.19 0.17 0.17 0.16 0.14 0.12 0.09 0.05 0.03 0.01 0.00 0.01 0.03 0.07 0.12 0.12 0.14 0.17 0.14 0.13 0.14 0.18 0.22 0.34 0.58 0.86 1.18 1.48 1.39 1.22 1.05 0.82 0.60 0.59 0.65 0.71 0.80 0.87 0.94 0.99
0.23 0.22 0.22 0.21 0.20 0.20 0.19 0.16 0.12 0.10 0.07 0.04 0.02 0.01 0.00 0.00 0.00 0.02 0.04 0.09 0.14 0.17 0.16 0.16 0.18 0.20 0.23 0.35 0.60 0.93 1.42 1.56 1.54 1.40 1.24 0.93 0.69 0.64 0.70 0.77 0.89 0.97 1.04
0.27 0.25 0.23 0.22 0.22 0.22 0.21 0.19 0.14 0.10 0.08 0.05 0.03 0.01 0.00 0.00 0.00 0.00 0.00 0.02 0.06 0.11 0.15 0.17 0.17 0.18 0.18 0.21 0.35 0.60 1.02 1.46 1.63 1.62 1.55 1.36 1.02 0.76 0.73 0.78 0.87 1.01 1.12
0.30 0.28 0.27 0.24 0.24 0.25 0.23 0.20 0.15 0.12 0.09 0.06 0.04 0.02 0.01 0.00 0.00 0.00 0.00 0.00 0.02 0.05 0.10 0.13 0.15 0.15 0.16 0.16 0.21 0.36 0.66 1.10 1.55 1.67 1.63 1.62 1.46 1.07 0.85 0.85 0.90 1.03 1.16
0.32 0.30 0.30 0.30 0.28 0.26 0.24 0.21 0.18 0.16 0.13 0.08 0.06 0.05 0.03 0.01 0.00 0.00 0.00 0.00 0.00 0.02 0.06 0.11 0.13 0.14 0.15 0.16 0.15 0.19 0.37 0.73 1.24 1.78 1.81 1.74 1.80 1.60 1.21 1.04 1.03 1.11 1.26
0.36 0.31 0.30 0.30 0.30 0.29 0.25 0.22 0.19 0.19 0.18 0.12 0.10 0.11 0.08 0.04 0.02 0.01 0.00 0.00 0.00 0.01 0.02 0.06 0.12 0.13 0.13 0.14 0.11 0.12 0.18 0.35 0.74 1.39 2.05 2.11 2.08 2.15 1.81 1.43 1.29 1.30 1.43
0.41 0.34 0.30 0.29 0.29 0.29 0.28 0.25 0.22 0.20 0.20 0.16 0.11 0.19 0.28 0.18 0.06 0.01 0.01 0.00 0.01 0.01 0.01 0.02 0.06 0.11 0.14 0.16 0.15 0.13 0.14 0.20 0.37 0.81 1.60 2.34 2.47 2.56 2.51 1.97 1.66 1.57 1.60
0.50 0.42 0.36 0.32 0.28 0.27 0.27 0.26 0.24 0.22 0.23 0.22 0.14 0.12 0.18 0.22 0.25 0.13 0.02 0.03 0.04 0.03 0.02 0.02 0.03 0.07 0.13 0.18 0.21 0.21 0.22 0.23 0.30 0.52 1.04 1.89 2.64 2.90 3.05 2.73 2.16 1.91 1.83
0.54 0.51 0.44 0.40 0.35 0.29 0.26 0.26 0.25 0.24 0.25 0.25 0.21 0.17 0.12 0.10 0.14 0.24 0.12 0.05 0.08 0.09 0.07 0.05 0.06 0.09 0.12 0.21 0.23 0.23 0.30 0.35 0.46 0.53 0.75 1.22 2.17 2.93 3.36 3.39 2.85 2.23 1.99
0.56 0.54 0.49 0.41 0.37 0.34 0.30 0.28 0.26 0.24 0.22 0.21 0.22 0.21 0.21 0.22 0.17 0.21 0.20 0.08 0.04 0.04 0.06 0.09 0.09 0.12 0.16 0.20 0.26 0.35 0.35 0.43 0.60 0.58 0.53 0.71 1.30 2.18 2.99 3.46 3.32 2.68 2.19
0.60 0.56 0.52 0.44 0.36 0.31 0.29 0.27 0.28 0.26 0.22 0.23 0.22 0.21 0.21 0.21 0.20 0.23 0.28 0.18 0.09 0.03 0.02 0.04 0.08 0.10 0.15 0.19 0.22 0.28 0.27 0.34 0.43 0.49 0.41 0.42 0.69 1.26 2.10 3.03 3.46 3.12 2.54
0.57 0.51 0.51 0.47 0.40 0.34 0.29 0.27 0.26 0.24 0.23 0.24 0.22 0.22 0.24 0.20 0.22 0.29 0.36 0.42 0.33 0.11 0.03 0.03 0.04 0.07 0.12 0.17 0.16 0.19 0.16 0.20 0.27 0.35 0.38 0.35 0.41 0.67 1.24 2.16 3.35 3.79 3.21
0.57 0.54 0.51 0.52 0.45 0.40 0.36 0.31 0.29 0.25 0.25 0.26 0.26 0.27 0.29 0.25 0.27 0.29 0.34 0.48 0.67 0.49 0.14 0.04 0.05 0.08 0.14 0.15 0.17 0.16 0.14 0.15 0.20 0.27 0.35 0.37 0.37 0.46 0.69 1.21 2.13 3.44 4.11
0.54 0.56 0.56 0.52 0.50 0.45 0.41 0.37 0.33 0.30 0.29 0.29 0.31 0.35 0.34 0.32 0.31 0.32 0.37 0.40 0.53 0.65 0.41 0.08 0.05 0.09 0.19 0.20 0.19 0.17 0.16 0.17 0.18 0.20 0.24 0.30 0.36 0.43 0.55 0.79 1.28 2.11 3.33
0.52 0.53 0.55 0.54 0.51 0.51 0.48 0.45 0.39 0.36 0.35 0.33 0.34 0.38 0.38 0.38 0.39 0.35 0.38 0.39 0.40 0.47 0.46 0.15 0.06 0.07 0.17 0.23 0.21 0.16 0.15 0.17 0.16 0.18 0.22 0.28 0.37 0.46 0.58 0.73 0.96 1.40 2.13
0.54 0.56 0.54 0.57 0.55 0.55 0.53 0.51 0.47 0.41 0.39 0.38 0.37 0.39 0.40 0.38 0.39 0.35 0.36 0.37 0.34 0.33 0.38 0.26 0.09 0.08 0.12 0.20 0.28 0.28 0.23 0.21 0.20 0.21 0.24 0.32 0.42 0.48 0.56 0.69 0.88 1.15 1.54
0.51 0.53 0.53 0.54 0.60 0.62 0.57 0.49 0.49 0.47 0.43 0.40 0.40 0.42 0.40 0.39 0.39 0.34 0.38 0.37 0.31 0.27 0.30 0.33 0.18 0.10 0.13 0.16 0.28 0.38 0.34 0.30 0.26 0.25 0.26 0.29 0.36 0.45 0.50 0.59 0.75 0.96 1.16
0.52 0.48 0.47 0.49 0.57 0.70 0.69 0.59 0.61 0.56 0.48 0.41 0.36 0.33 0.37 0.45 0.43 0.41 0.44 0.38 0.34 0.37 0.40 0.46 0.34 0.22 0.21 0.22 0.34 0.46 0.50 0.45 0.37 0.30 0.29 0.29 0.34 0.46 0.49 0.47 0.48 0.59 0.79
0.56 0.49 0.46 0.46 0.51 0.81 1.13 1.06 0.97 0.78 0.54 0.39 0.30 0.28 0.34 0.45 0.48 0.63 0.73 0.64 0.63 0.71 0.69 0.71 0.63 0.51 0.43 0.45 0.49 0.49 0.64 0.63 0.53 0.43 0.37 0.31 0.31 0.31 0.33 0.34 0.36 0.44 0.56
0.59 0.51 0.47 0.46 0.46 0.70 1.21 1.27 0.99 0.65 0.49 0.39 0.33 0.27 0.28 0.39 0.40 0.48 0.63 0.73 0.83 0.97 1.02 1.02 0.97 0.85 0.63 0.55 0.55 0.64 0.73 0.87 0.83 0.60 0.55 0.44 0.40 0.41 0.35 0.33 0.37 0.42 0.52
0.54 0.55 0.48 0.43 0.40 0.53 1.06 1.16 0.84 0.56 0.43 0.37 0.31 0.27 0.27 0.34 0.40 0.44 0.50 0.53 0.58 0.74 0.97 1.08 1.13 0.85 0.66 0.59 0.72 0.89 0.88 0.97 0.92 0.83 0.91 0.78 0.52 0.49 0.44 0.48 0.54 0.50 0.53
0.44 0.48 0.49 0.43 0.39 0.42 0.88 1.03 0.79 0.57 0.43 0.34 0.27 0.26 0.26 0.30 0.41 0.59 0.59 0.53 0.48 0.54 0.76 0.97 1.18 1.02 0.83 0.84 1.08 1.35 1.43 1.32 0.99 0.84 1.00 1.09 0.71 0.58 0.59 0.62 0.63 0.56 0.53
0.40 0.40 0.44 0.44 0.39 0.37 0.65 0.89 0.77 0.59 0.48 0.38 0.29 0.26 0.27 0.29 0.44 0.68 0.69 0.57 0.43 0.41 0.51 0.79 1.07 1.20 1.18 1.23 1.40 1.72 1.86 1.70 1.30 0.88 0.92 1.13 1.00 0.83 0.85 0.89 0.81 0.68 0.56
0.42 0.39 0.41 0.42 0.38 0.34 0.50 0.73 0.77 0.60 0.50 0.42 0.36 0.29 0.33 0.43 0.55 0.69 0.66 0.62 0.69 0.54 0.47 0.49 0.56 0.68 0.78 0.87 1.11 1.42 1.66 1.70 1.43 1.27 1.04 1.11 1.23 1.21 1.32 1.16 1.01 0.77 0.57